Weather History for St. George, AK

Change the Weather History Date:

Tuesday, December 11, 2012

  Actual Average Record
Temperature  
Mean Temperature 38 °F -  
Max Temperature 41 °F 29 °F 41 °F (2012)
Min Temperature 35 °F 22 °F 12 °F (2001)
Degree Days  
Heating Degree Days 27    
Moisture  
Dew Point 39 °F    
Average Humidity 99    
Maximum Humidity 100    
Minimum Humidity 93    
Precipitation  
Precipitation 0.05 in - - ()
Sea Level Pressure  
Sea Level Pressure 29.36 in    
Wind  
Wind Speed 25 mph (SSW)    
Max Wind Speed 32 mph    
Max Gust Speed 40 mph    
Visibility 3 miles    
Events Fog , Rain , Snow    
Averages and records for this station are not official NWS values.
T = Trace of Precipitation, MM = Missing Value Source: NWS Daily Summary

Daily Weather History Graph

Daily Weather History Graph

Search for Another Location

Airport:

Trip Planner

Search our weather history database for the weather conditions in past years. The results will help you decide how hot, cold, wet, or windy it might be!

Date:

Astronomy

Dec. 11, 2012 Rise Set
Actual Time 10:44 AM AKST 5:39 PM AKST
Civil Twilight 9:56 AM AKST 6:28 PM AKST
Nautical Twilight 9:06 AM AKST 7:17 PM AKST
Astronomical Twilight 8:20 AM AKST 8:04 PM AKST
Moon 8:45 AM AKST (12/11) 4:39 PM AKST (12/11)
Length of Visible Light 8h 31m
Length of Day
6h 55m
Waning Crescent, 3% of the Moon is Illuminated
Dec 11
Waning Crescent
Dec 12
New
Dec 19
First Quarter
Dec 28
Full
Jan 4
Last Quarter

Hourly Weather History & Observations

Time (AKST) Temp. Windchill Dew Point Humidity Pressure Visibility Wind Dir Wind Speed Gust Speed Precip Events Conditions
12:37 AM 35.6 °F 22.1 °F 35.6 °F 100% 29.61 in 2.0 mi SE 32.2 mph 40.3 mph 0.00 in Snow Light Snow
12:53 AM 37.0 °F 24.1 °F 37.0 °F 100% 29.58 in 1.8 mi SSE 32.2 mph 40.3 mph 0.01 in Snow Light Snow
1:05 AM 37.4 °F 25.2 °F 37.4 °F 100% 29.60 in 2.5 mi SSE 28.8 mph 36.8 mph 0.00 in Snow Light Snow
1:14 AM 37.4 °F 25.6 °F 37.4 °F 100% 29.60 in 3.0 mi SSE 26.5 mph 35.7 mph 0.00 in Snow Light Snow
1:53 AM 39.0 °F 28.0 °F 39.0 °F 100% 29.55 in 2.5 mi South 25.3 mph 33.4 mph 0.00 in   Overcast
2:05 AM 39.2 °F 29.0 °F 39.2 °F 100% 29.58 in 1.8 mi South 21.9 mph 32.2 mph N/A   Overcast
2:39 AM 39.2 °F 29.6 °F 39.2 °F 100% 29.58 in 0.8 mi South 19.6 mph - N/A   Mist
3:53 AM 39.0 °F 30.6 °F 39.0 °F 100% 29.54 in 0.2 mi South 15.0 mph - N/A Fog Fog
4:53 AM 39.0 °F 31.0 °F 39.0 °F 100% 29.52 in 0.2 mi South 13.8 mph 21.9 mph N/A Fog Fog
5:53 AM 39.9 °F 31.4 °F 39.9 °F 100% 29.51 in 0.2 mi South 16.1 mph - 0.00 in Fog Fog
6:53 AM 39.9 °F 30.5 °F 39.9 °F 100% 29.48 in 0.8 mi South 19.6 mph - N/A   Mist
6:56 AM 39.2 °F 29.6 °F 39.2 °F 100% 29.51 in 1.2 mi South 19.6 mph - N/A   Overcast
7:01 AM 39.2 °F 29.3 °F 39.2 °F 100% 29.50 in 3.0 mi South 20.7 mph - N/A   Overcast
7:53 AM 39.9 °F 30.5 °F 39.9 °F 100% 29.42 in 4.0 mi South 19.6 mph - 0.00 in   Overcast
8:08 AM 39.2 °F 29.6 °F 39.2 °F 100% 29.44 in 2.0 mi South 19.6 mph - 0.01 in Rain Light Rain
8:53 AM 41.0 °F 30.7 °F 41.0 °F 100% 29.37 in 2.5 mi South 25.3 mph 33.4 mph 0.01 in   Overcast
9:02 AM 41.0 °F 30.9 °F 41.0 °F 100% 29.40 in 3.0 mi South 24.2 mph 33.4 mph N/A   Overcast
9:38 AM 41.0 °F 30.2 °F 41.0 °F 100% 29.38 in 2.0 mi South 27.6 mph 34.5 mph N/A   Overcast
9:53 AM 41.0 °F 30.9 °F 41.0 °F 100% 29.34 in 2.0 mi South 24.2 mph 29.9 mph N/A   Overcast
10:08 AM 41.0 °F 30.9 °F 41.0 °F 100% 29.37 in 4.0 mi South 24.2 mph 32.2 mph N/A   Overcast
10:39 AM 41.0 °F 31.1 °F 41.0 °F 100% 29.36 in 2.5 mi South 23.0 mph 36.8 mph N/A   Overcast
10:53 AM 41.0 °F 30.5 °F 41.0 °F 100% 29.32 in 2.5 mi South 26.5 mph 34.5 mph 0.01 in Rain Light Rain
11:01 AM 41.0 °F 30.7 °F 41.0 °F 100% 29.35 in 3.0 mi South 25.3 mph 33.4 mph 0.00 in Rain Light Rain
11:44 AM 41.0 °F 30.2 °F 41.0 °F 100% 29.32 in 2.0 mi South 27.6 mph 35.7 mph 0.00 in   Overcast
11:53 AM 41.0 °F 30.7 °F 41.0 °F 100% 29.29 in 1.8 mi South 25.3 mph 34.5 mph 0.00 in   Overcast
12:51 PM 41.0 °F 30.7 °F 41.0 °F 100% 29.32 in 0.8 mi South 25.3 mph 35.7 mph 0.01 in Rain Light Rain
12:52 PM 41.0 °F 30.7 °F 41.0 °F 100% 29.29 in 0.8 mi SSW 25.3 mph 35.7 mph 0.01 in Rain Light Rain
12:59 PM 41.0 °F 30.0 °F 41.0 °F 100% 29.32 in 1.2 mi SSW 28.8 mph 35.7 mph 0.00 in Rain Light Rain
1:29 PM 41.0 °F 30.7 °F 41.0 °F 100% 29.32 in 0.8 mi SSW 25.3 mph 36.8 mph 0.01 in   Overcast
1:53 PM 41.0 °F 30.5 °F 41.0 °F 100% 29.27 in 1.0 mi SSW 26.5 mph 35.7 mph 0.01 in   Mist
2:31 PM 39.2 °F 28.0 °F 39.2 °F 100% 29.31 in 0.8 mi SSW 26.5 mph 31.1 mph N/A   Overcast
2:53 PM 39.9 °F 29.2 °F 39.9 °F 100% 29.28 in 0.5 mi SSW 25.3 mph - N/A Fog Fog
3:45 PM 39.2 °F 28.5 °F 39.2 °F 100% 29.31 in 1.0 mi SSW 24.2 mph - N/A   Overcast
3:53 PM 39.9 °F 29.2 °F 39.9 °F 100% 29.27 in 1.0 mi SSW 25.3 mph 32.2 mph N/A   Overcast
4:06 PM 39.2 °F 28.0 °F 39.2 °F 100% 29.30 in 0.8 mi SSW 26.5 mph 33.4 mph N/A   Overcast
4:53 PM 39.9 °F 30.0 °F 39.9 °F 100% 29.26 in 0.2 mi SSW 21.9 mph 29.9 mph N/A Fog Fog
5:53 PM 39.9 °F 30.5 °F 39.9 °F 100% 29.26 in 0.5 mi SSW 19.6 mph 27.6 mph N/A Fog Fog
6:02 PM 39.2 °F 29.6 °F 39.2 °F 100% 29.30 in 1.2 mi SW 19.6 mph - N/A   Overcast
6:19 PM 39.2 °F 29.6 °F 39.2 °F 100% 29.30 in 2.0 mi SW 19.6 mph - N/A   Overcast
6:48 PM 39.2 °F 28.7 °F 39.2 °F 100% 29.30 in 1.0 mi SSW 23.0 mph - N/A   Overcast
6:53 PM 39.0 °F 28.5 °F 39.0 °F 100% 29.27 in 0.5 mi SSW 23.0 mph - N/A Fog Fog
7:27 PM 39.2 °F 27.8 °F 39.2 °F 100% 29.29 in 1.2 mi SW 27.6 mph 33.4 mph 0.00 in   Overcast
7:31 PM 39.2 °F 28.5 °F 39.2 °F 100% 29.29 in 3.0 mi SW 24.2 mph 33.4 mph 0.00 in   Overcast
7:49 PM 39.2 °F 29.0 °F 39.2 °F 100% 29.29 in 6.0 mi SW 21.9 mph 31.1 mph 0.00 in   Overcast
7:53 PM 39.0 °F 28.3 °F 39.0 °F 100% 29.25 in 7.0 mi SW 24.2 mph - 0.00 in   Overcast
8:03 PM 39.2 °F 28.7 °F 39.2 °F 100% 29.29 in 8.0 mi SW 23.0 mph - N/A   Overcast
8:53 PM 39.9 °F 30.0 °F 37.9 °F 93% 29.25 in 8.0 mi SW 21.9 mph - N/A   Overcast
9:18 PM 39.2 °F 28.3 °F 37.4 °F 93% 29.27 in 8.0 mi SW 25.3 mph 32.2 mph N/A   Overcast
9:46 PM 39.2 °F 28.3 °F 37.4 °F 93% 29.27 in 7.0 mi SSW 25.3 mph 32.2 mph N/A   Overcast
9:53 PM 39.0 °F 28.3 °F 37.9 °F 96% 29.24 in 7.0 mi SSW 24.2 mph 32.2 mph N/A   Overcast
10:42 PM 39.2 °F 27.6 °F 37.4 °F 93% 29.27 in 6.0 mi SSW 28.8 mph 35.7 mph N/A   Overcast
10:51 PM 39.2 °F 28.3 °F 37.4 °F 93% 29.27 in 5.0 mi SSW 25.3 mph 34.5 mph N/A   Overcast
10:53 PM 39.0 °F 28.3 °F 37.9 °F 96% 29.24 in 5.0 mi SSW 24.2 mph 34.5 mph N/A   Overcast
11:53 PM 39.9 °F 29.2 °F 37.9 °F 93% 29.23 in 6.0 mi SSW 25.3 mph 38.0 mph N/A   Overcast